User: anonymous   Login
Location: Unspecified
(0.0000°N, 0.0000°E)
Time: 03:56:26
(UTC+00:00)
Language:

CANX 3B (BRITE-ASRA) - Orbit

View from above orbital plane
View from above orbital plane
View from above satellite
View from above satellite

Ground track
Ground track

The orbit data is extracted from the following two-line orbital elements,

1 39091U 13009F   15147.09041414  .00000082  00000-0  44547-4 0  9994
2 39091 098.6051 345.7430 0010975 022.9605 337.2069 14.34883542117635
Epoch (UTC): 27 May 2015 02:10:11
Eccentricity: 0.0010975
inclination: 98.6051°
perigee height: 767 km
apogee height: 783 km
right ascension of ascending node: 345.7430°
argument of perigee: 22.9605°
revolutions per day: 14.34883542
mean anomaly at epoch: 337.2069°
orbit number at epoch: 11763

The dashed part of the orbit path shows where the satellite is in the earth's shadow,  

DLR